EST,Max TemperatureF,Mean TemperatureF,Min TemperatureF,Max Dew PointF,MeanDew PointF,Min DewpointF,Max Humidity, Mean Humidity, Min Humidity, Max Sea Level PressureIn, Mean Sea Level PressureIn, Min Sea Level PressureIn, Max VisibilityMiles, Mean VisibilityMiles, Min VisibilityMiles, Max Wind SpeedMPH, Mean Wind SpeedMPH, Max Gust SpeedMPH,PrecipitationIn, CloudCover, Events, WindDirDegrees
2013-11-1,65,58,50,56,44,37,88,61,34,29.71,29.54,29.33,10,10,10,22,16,32,0.03,6,Rain,237
2013-11-2,54,45,36,45,40,33,100,83,59,29.94,29.74,29.65,10,9,3,12,4,18,0.13,8,Rain,285
2013-11-3,36,31,24,34,25,18,93,74,57,30.54,30.26,29.92,10,10,10,15,8,20,0.00,6,Rain,359
2013-11-4,41,30,19,22,17,13,93,58,32,30.69,30.61,30.55,10,10,10,13,4,,0.00,0,,112
2013-11-5,50,42,33,36,27,17,68,55,46,30.59,30.52,30.41,10,10,10,18,11,20,0.00,2,,170
2013-11-6,56,50,45,47,43,37,83,72,60,30.40,30.17,29.89,10,10,10,20,12,26,0.00,3,,172
2013-11-7,56,46,36,52,39,29,97,82,68,29.99,29.92,29.82,10,9,4,17,10,26,0.30,8,Rain,294
2013-11-8,38,35,32,32,28,25,87,74,60,30.24,30.09,29.95,10,10,1,23,11,30,0.00,6,Snow,295
2013-11-9,45,38,30,28,26,23,82,61,46,30.26,30.11,29.87,10,10,10,17,8,24,0.00,7,,187
2013-11-10,46,42,38,40,33,26,89,68,54,30.14,29.93,29.82,10,10,6,26,11,37,0.01,8,Rain,266
2013-11-11,43,36,30,36,30,25,96,77,52,30.19,30.07,29.97,10,8,2,21,12,28,0.02,7,Rain-Snow,268
2013-11-12,30,26,23,28,22,17,100,83,63,30.38,30.23,30.05,10,6,2,20,14,24,0.01,7,Snow,324
2013-11-13,34,26,19,21,18,14,93,73,54,30.45,30.35,30.19,10,8,2,16,10,24,0.00,5,Snow,299
2013-11-14,50,38,26,17,13,11,60,38,24,30.19,30.14,30.10,10,10,10,14,8,20,0.00,0,,200
2013-11-15,56,42,28,21,18,14,69,37,21,30.19,30.15,30.10,10,10,10,13,7,,0.00,0,,184
2013-11-16,57,48,38,39,33,27,71,57,42,30.30,30.22,30.16,10,10,10,17,8,17,0.00,1,,172
2013-11-17,57,52,46,54,48,40,93,85,77,30.14,29.92,29.52,10,10,10,24,15,32,0.04,8,Rain,171
2013-11-18,57,46,34,55,36,23,94,66,37,29.89,29.66,29.47,10,10,5,26,16,33,0.10,6,Rain-Snow,249
2013-11-19,35,32,29,30,26,21,93,76,62,30.44,30.18,29.90,10,9,2,25,17,32,0.00,8,Snow,318
2013-11-20,38,28,19,22,16,9,93,62,32,30.62,30.56,30.45,10,10,10,8,4,,0.00,0,,104
2013-11-21,45,36,28,36,22,8,93,59,38,30.56,30.47,30.34,10,10,9,15,10,22,0.00,4,Rain,170
2013-11-22,46,40,34,45,40,28,100,92,79,30.30,30.11,29.98,10,7,3,22,7,32,0.15,8,Rain,219
2013-11-23,37,27,17,28,20,10,93,76,47,30.16,30.07,29.94,10,8,0,25,17,39,0.00,7,Fog-Snow,306
2013-11-24,21,18,15,13,11,7,88,78,57,30.41,30.24,30.07,10,5,0,29,20,36,0.00,7,Fog-Snow,308
2013-11-25,32,23,14,16,11,8,79,63,43,30.44,30.33,30.21,10,10,5,17,9,21,0.00,6,Snow,222
2013-11-26,35,30,26,34,27,10,100,88,43,30.23,30.11,29.79,10,6,1,15,10,20,0.48,8,Rain-Snow,163
2013-11-27,35,28,21,34,29,16,100,94,78,29.86,29.65,29.55,10,4,1,28,11,36,0.56,8,Rain-Snow,324
2013-11-28,24,20,17,19,14,10,93,76,60,30.45,30.26,29.90,10,8,2,26,16,34,0.00,7,Snow,304
2013-11-29,25,17,7,20,15,4,100,84,58,30.77,30.58,30.40,10,7,1,10,2,,0.00,6,Snow,7
2013-11-30,30,18,7,20,11,4,88,69,47,30.76,30.56,30.30,10,10,10,22,9,25,0.00,3,,140